Main page
METAR-TAF:

METAR-TAF

Airports :

King Khalid Military City

Hafar Al-Batin, Saudi Arabia

latitude: 27-54N, longitude: 045-32E, elevation: 413 m

METAR: missing

Time: 09:39 (06:39 UTC)

Forecast

The report was made 1 hour and 39 minutes ago, at 05:00 UTC
Forecast valid from 23 at 06 UTC to 23 at 20 UTC
Wind 13 kt from the East
Visibility 10 km or more
Few clouds at a height of 4000 ft
Temporary
from 23 at 06 UTC to 23 at 16 UTC
Visibility: 4000 m
widespread dust

TAF: OEKK 230500Z 2306/2320 08013KT 9999 FEW040 TEMPO 2306/2316 4000 DU

Weather observations and forecasts of more than 4000 airports (METAR and TAF reports).

The available stations are represented by yellow and red dots on the map.

Hover mouse over dot to see the name of the station.

Then click to see weather observations and forecasts.

To change the map : click on the green buttons with a black cross to zoom in, on the green button with a dash to zoom out, or on the green arrows for adjacent maps.


METAR-TAF: